Regional Weather Roundup
Issued by NWS Charleston, SC

Current Version | Previous Version | Graphics & Text | Print | Product List | Glossary On
Versions: 1 2 3 4 5 6 7 8 9 10 11 12 13 14 15 16 17 18 19 20 21 22 23 24 25 26 27 28 29 30 31 32 33 34 35 36 37 38 39 40 41 42 43 44 45 46 47 48 49 50
000
ASUS42 KCHS 010310
RWRCHS
REGIONAL WEATHER ROUNDUP
NATIONAL WEATHER SERVICE CHARLESTON SC
1100 PM EDT TUE SEP 30 2014

NOTE: "FAIR" INDICATES FEW OR NO CLOUDS BELOW 12,000 FEET WITH NO
SIGNIFICANT WEATHER AND/OR OBSTRUCTIONS TO VISIBILITY.

NOT ALL STATIONS ARE QUALITY CONTROLLED BY THE NATIONAL
WEATHER SERVICE. USE DATA WITH CAUTION...ESPECIALLY
DEWPOINT OBSERVATIONS.

SCZ027-030-031-034>040-042>050-010400-
...SOUTH CAROLINA...

CITY           SKY/WX    TMP DP  RH WIND       PRES   REMARKS
N CHARLESTON   CLEAR     70  65  84 CALM      29.91R
WATERFRONT PRK   N/A     72 N/A N/A SW3         N/A
FORT JOHNSON   NOT AVBL
MOUNT PLEASANT FAIR      66  66 100 CALM      29.90S
JOHNS ISLAND   CLEAR     66  66 100 CALM      29.91S
PINOPOLIS        N/A     73  70  88 MISG      29.84R
MONCKS CORNER  FAIR      66  66 100 CALM      29.90S
SUMMERVILLE    FAIR      64  64 100 CALM      29.91S
BEAUFORT MCAS  CLEAR     69  66  90 SW3       29.91R
BEAUFORT ARPT  FAIR      68  68 100 CALM      29.91R
HILTON HEAD IS CLEAR     66  66 100 CALM      29.93R
GEORGETOWN     NOT AVBL
WALTERBORO     CLEAR     68 N/A N/A CALM      29.92R
ORANGEBURG     CLEAR     66  64  93 CALM      29.91S
BARNWELL       FAIR      66  64  94 CALM      29.92S
AIKEN          FAIR      64  64 100 CALM      29.96S
MANNING        FAIR      64 N/A N/A CALM      29.91S
KINGSTREE      NOT AVBL
COLUMBIA       CLEAR     67  62  84 W3        29.91R
SUMTER         CLEAR     66  62  88 CALM      29.90R
FLORENCE       CLEAR     66  64  93 CALM      29.91R
MYRTLE BEACH   CLEAR     68  64  88 CALM      29.90R
N MYRTLE BEACH CLEAR     66  64  93 CALM      29.90R

$$

GAZ063-065-086>088-099>101-113>116-118-119-134-136>141-150-010400-
...GEORGIA...

CITY           SKY/WX    TMP DP  RH WIND       PRES   REMARKS
SAVANNAH ARPT  CLEAR     71  67  87 CALM      29.92R
HUNTER AAF     CLEAR     69  68  96 W1        29.90R
FORT STEWART   CLEAR     68  67  94 CALM      29.91R
STATESBORO     NOT AVBL
SYLVANIA       CLEAR     69  68  98 CALM      29.92S
CLAXTON        FAIR      68  68 100 CALM      29.92S
THOMSON        CLEAR     65  65 100 CALM      29.97R
AUGUSTA-BUSH   CLEAR     64  63  96 CALM      29.91S
AUGUSTA-DANIEL CLEAR     72  65  78 E5        29.92S
SWAINSBORO     FAIR      68  68 100 CALM      29.93S
VIDALIA        CLEAR     70  68  94 CALM      29.93S
ALMA           CLOUDY    73  68  84 CALM      29.92R
WAYCROSS       MOCLDY    74  73  97 CALM      29.92S
JESUP          FAIR      70  70 100 CALM      29.92R
BRUNSWICK        N/A     68  66  94 CALM      29.92S VSB 3/4
SAINT SIMONS   CLEAR     70  67  90 N3        29.91S

$$

SCZ027-028-034-036>038-045-046-048>050-GAZ119-141-010400-
...LAKE AND SUPPLEMENTAL COASTAL OBSERVATIONS...

STATION/POSITION TIME  TEMP    WIND        PRES    WAVE   SWELL
                       AIR SEA DIR/SP/G            HT/PER HT/PER/DIR
                 (UTC) (F)     (DEG/KT/KT) (MB)    (FT/S) (FT/S/D)
UPR LAKE MARION  NOT AVBL
WINYAH BAY       0200   69     310/  1     1012.0S
LAKE MURRAY      0200   70     300/  1/  2 1012.5R
ACE BASIN NERRS  0200   68        CALM     1012.0S
FORT PULASKI     0300   71        CALM     1013.2S
SAPELO ISLAND    NOT AVBL

$$

ANZ835-935-AMZ111-154-330-350-352-354-374-450-454-472-010400-
...C-MAN AND BUOY OBSERVATIONS...

STATION/POSITION TIME  TEMP    WIND        PRES    WAVE   SWELL
                       AIR SEA DIR/SP/G            HT/PER HT/PER/DIR
                 (UTC) (F)     (DEG/KT/KT) (MB)    (FT/S) (FT/S/D)
FOLLY BEACH CMAN 0200   71     260/  3/  3 1012.8R
BUOY 41004       0300   77 81   20/  8/  8 1011.7R   3/ 6   3/ 6
BUOY 41008       0300   77 79   70/  8/ 10 1012.5R   3/ 6   3/ 80/ 6
5E ST. MARYS GA  0300      79                N/A     3/ 6
FRYING PAN BUOY  NOT AVBL
BUOY 41025       0300   73     350/ 14/ 16 1010.7S   4/ 6   2/ 60/ 7
CAPE LOOKOUT NC  0200   71      10/  9/ 12 1011.2S
BUOY 41002       0206   78 81   70/  8/ 10 1008.5    3/ 6   3/ 70/ 6
BUOY 41010       0300   81 84  340/ 10/ 12 1010.6F   2/ 8   2/ 60/ 8
BUOY 41012       NOT AVBL
ST AUGUSTINE FL  0300   77      20/ 14/ 15 1012.5R
CAPERS NEARSHORE 0200   73     300/  2/  4   N/A
FRIPP NEARSHORE  NOT AVBL


$$



USA.gov is the U.S. government's official web portal to all federal, state and local government web resources and services.